Weather History for MWCR - January, 2014

Change the Weather History Date:

Friday, January 3, 2014

  Actual Average Record
Temperature  
Mean Temperature 77 °F -  
Max Temperature 81 °F 80 °F 87 °F (1999)
Min Temperature 73 °F 73 °F 35 °F (2004)
Cooling Degree Days 12    
Growing Degree Days 27 (Base 50)    
Moisture  
Dew Point 75 °F    
Average Humidity 91    
Maximum Humidity 100    
Minimum Humidity 74    
Precipitation  
Precipitation 0.71 in - - ()
Sea Level Pressure  
Sea Level Pressure 29.97 in    
Wind  
Wind Speed 7 mph ()    
Max Wind Speed 16 mph    
Max Gust Speed 30 mph    
Visibility 5.1 miles    
Events Rain    
Averages and records for this station are not official NWS values.
T = Trace of Precipitation, MM = Missing Value Source: Averaged Metar Reports

Daily Weather History Graph

Daily Weather History Graph

Search for Another Location

Airport or City:

Trip Planner

Search our weather history database for the weather conditions in past years. The results will help you decide how hot, cold, wet, or windy it might be!

Date:

Astronomy

Jan. 03, 2014 Rise Set
Actual Time 6:59 AM EST 6:00 PM EST
Civil Twilight 6:36 AM EST 6:24 PM EST
Nautical Twilight 6:08 AM EST 6:51 PM EST
Astronomical Twilight 5:41 AM EST 7:18 PM EST
Moon 8:47 AM EST (1/3) 8:41 PM EST (1/3)
Length of Visible Light 11h 47m
Length of Day
11h 00m
Waxing Crescent, 8% of the Moon is Illuminated
Jan 3
Waxing Crescent
Jan 7
First Quarter
Jan 15
Full
Jan 24
Last Quarter
Jan 30
New

Hourly Weather History & Observations

Time (EST) Temp. Heat Index Dew Point Humidity Pressure Visibility Wind Dir Wind Speed Gust Speed Precip Events Conditions
5:50 AM 78.8 °F - 71.6 °F 78% 29.95 in 6.2 mi NE 6.9 mph - N/A   Scattered Clouds
6:50 AM 78.8 °F - 71.6 °F 78% 29.95 in 5.6 mi NNE 5.8 mph - N/A   Mostly Cloudy
7:00 AM 78 °F - 72 °F 77% 29.95 in 6 mi NNE 5.8 mph - -   Mostly Cloudy
8:00 AM 78.8 °F - 75.2 °F 89% 29.98 in 5.6 mi NE 11.5 mph - N/A   Scattered Clouds
8:55 AM 78.8 °F - 75.2 °F 89% 29.98 in 6.2 mi ENE 10.4 mph - N/A Rain Light Rain Showers
9:35 AM - - - N/A% - 0.6 mi NNE 15.0 mph 29.9 mph N/A Rain Heavy Rain Showers
9:50 AM 73.4 °F - 73.4 °F 100% 30.01 in 1.9 mi NE 16.1 mph 29.9 mph N/A Rain Rain Showers
10:53 AM 75.2 °F - 75.2 °F 100% 30.01 in 6.2 mi NNE 6.9 mph - N/A   Partly Cloudy
11:50 AM 77.0 °F - 75.2 °F 94% 30.01 in 5.0 mi ENE 10.4 mph - N/A Rain Light Rain Showers
12:30 PM - - - N/A% - 1.2 mi SSE 8.1 mph 21.9 mph N/A Rain Heavy Rain Showers
1:00 PM 75 °F - 74 °F 96% 29.97 in 6 mi NE 2.3 mph - - Rain Light Rain Showers
1:00 PM 86.0 °F 96.9 °F 77.0 °F 74% 29.95 in 6.2 mi East 6.9 mph - N/A   Mostly Cloudy
2:00 PM 75.2 °F - 75.2 °F 100% 29.95 in 3.1 mi East 12.7 mph - N/A Rain Rain
3:00 PM 75.2 °F - 75.2 °F 100% 29.92 in 5.0 mi NE 8.1 mph - N/A Rain Light Rain Showers
4:00 PM 78.8 °F - 77.0 °F 94% 29.92 in 6.2 mi NNE 3.5 mph - N/A   Mostly Cloudy
5:00 PM 78.8 °F - 77.0 °F 94% 29.92 in 6.2 mi NNE 4.6 mph - N/A   Mostly Cloudy
6:00 PM 78.8 °F - 77.0 °F 94% 29.95 in 6.2 mi NNE 3.5 mph - N/A   Mostly Cloudy
7:00 PM 78 °F - 75 °F 87% 29.97 in 5 mi East 8.1 mph - - Rain Light Rain Showers
7:00 PM 77.0 °F - 75.2 °F 94% 29.95 in 5.0 mi East 8.1 mph - N/A Rain Light Rain Showers
8:00 PM 77.0 °F - 75.2 °F 94% 29.98 in 6.2 mi East 5.8 mph - N/A   Scattered Clouds
9:00 PM 77.0 °F - 75.2 °F 94% 30.01 in 6.2 mi East 5.8 mph - N/A   Partly Cloudy
10:00 PM 77.0 °F - 75.2 °F 94% 30.01 in 6.2 mi East 4.6 mph - N/A   Scattered Clouds